| time (UTC) | temp F | wind direction | speed MPH | gust MPH | rain 1hr in | rain 24hr in | rain mn in | humidity % | barometer mb |
| 20260509224334 | 83 | 323 | 0.0 | 3.0 | 0.00 | 0.00 | 0.00 | 27 | 1010.9 |
| 20260509223324 | 82 | 337 | 0.0 | 3.0 | 0.00 | 0.00 | 0.00 | 28 | 1010.9 |
| 20260509222335 | 82 | 355 | 0.0 | 6.0 | 0.00 | 0.00 | 0.00 | 29 | 1011.0 |
| 20260509221328 | 82 | 284 | 0.0 | 4.0 | 0.00 | 0.00 | 0.00 | 33 | 1011.4 |
| 20260509220323 | 82 | 318 | 0.0 | 1.0 | 0.00 | 0.00 | 0.00 | 33 | 1011.4 |
| 20260509215321 | 82 | 310 | 0.0 | 1.0 | 0.00 | 0.00 | 0.00 | 38 | 1011.8 |
| 20260509214332 | 81 | 350 | 0.0 | 3.0 | 0.00 | 0.00 | 0.00 | 37 | 1011.8 |
| 20260509213327 | 81 | 323 | 0.0 | 2.0 | 0.00 | 0.00 | 0.00 | 37 | 1011.8 |
| 20260509212326 | 80 | 225 | 0.0 | 4.0 | 0.00 | 0.00 | 0.00 | 41 | 1012.0 |
| 20260509211320 | 79 | 250 | 1.0 | 10.0 | 0.00 | 0.00 | 0.00 | 44 | 1012.2 |
| 20260509210356 | 79 | 293 | 0.0 | 6.0 | 0.00 | 0.00 | 0.00 | 44 | 1012.2 |
| 20260509205326 | 78 | 5 | 0.0 | 6.0 | 0.00 | 0.00 | 0.00 | 53 | 1012.4 |
| 20260509204316 | 78 | 294 | 0.0 | 5.0 | 0.00 | 0.00 | 0.00 | 45 | 1012.6 |
| 20260509203332 | 77 | 360 | 1.0 | 6.0 | 0.00 | 0.00 | 0.00 | 47 | 1012.6 |
| 20260509202330 | 76 | 333 | 0.0 | 0.0 | 0.00 | 0.00 | 0.00 | 48 | 1012.7 |
| 20260509201324 | 75 | 63 | 0.0 | 7.0 | 0.00 | 0.00 | 0.00 | 49 | 1013.0 |
| 20260509200316 | 74 | 309 | 1.0 | 3.0 | 0.00 | 0.00 | 0.00 | 49 | 1013.0 |
| 20260509195329 | 74 | 206 | 0.0 | 4.0 | 0.00 | 0.00 | 0.00 | 53 | 1013.3 |
| 20260509194341 | 74 | 279 | 0.0 | 3.0 | 0.00 | 0.00 | 0.00 | 54 | 1013.5 |
| 20260509193334 | 73 | 277 | 0.0 | 5.0 | 0.00 | 0.00 | 0.00 | 56 | 1013.5 |
| 20260509192331 | 72 | 355 | 0.0 | 1.0 | 0.00 | 0.00 | 0.00 | 60 | 1013.7 |
| 20260509191324 | 71 | 241 | 0.0 | 4.0 | 0.00 | 0.00 | 0.00 | 57 | 1013.9 |
| 20260509190341 | 71 | 277 | 0.0 | 3.0 | 0.00 | 0.00 | 0.00 | 55 | 1013.9 |
| 20260509185335 | 71 | 334 | 1.0 | 6.0 | 0.00 | 0.00 | 0.00 | 56 | 1014.1 |
| 20260509184329 | 70 | 282 | 0.0 | 3.0 | 0.00 | 0.00 | 0.00 | 56 | 1014.2 |
| 20260509183343 | 70 | 329 | 0.0 | 6.0 | 0.00 | 0.00 | 0.00 | 57 | 1014.2 |
| 20260509182334 | 69 | 302 | 0.0 | 0.0 | 0.00 | 0.00 | 0.00 | 57 | 1014.4 |
| 20260509181328 | 68 | 300 | 0.0 | 0.0 | 0.00 | 0.00 | 0.00 | 60 | 1014.5 |
| 20260509180321 | 68 | 317 | 0.0 | 1.0 | 0.00 | 0.00 | 0.00 | 60 | 1014.5 |
| 20260509175352 | 67 | 261 | 0.0 | 0.0 | 0.00 | 0.00 | 0.00 | 63 | 1014.6 |
| 20260509174325 | 66 | 39 | 0.0 | 0.0 | 0.00 | 0.00 | 0.00 | 65 | 1014.7 |
| 20260509173322 | 66 | 350 | 0.0 | 0.0 | 0.00 | 0.00 | 0.00 | 64 | 1014.7 |
| 20260509172335 | 65 | 344 | 0.0 | 4.0 | 0.00 | 0.00 | 0.00 | 64 | 1015.1 |
| 20260509171347 | 64 | 274 | 0.0 | 0.0 | 0.00 | 0.00 | 0.00 | 65 | 1015.1 |
| 20260509170319 | 63 | 223 | 0.0 | 0.0 | 0.00 | 0.00 | 0.00 | 70 | 1015.1 |
| 20260509165348 | 62 | 244 | 0.0 | 0.0 | 0.00 | 0.00 | 0.00 | 70 | 1015.3 |
| 20260509164345 | 61 | 171 | 0.0 | 0.0 | 0.00 | 0.00 | 0.00 | 74 | 1015.5 |
| 20260509163357 | 62 | 171 | 0.0 | 0.0 | 0.00 | 0.00 | 0.00 | 72 | 1015.5 |
| 20260509162326 | 61 | 204 | 0.0 | 0.0 | 0.00 | 0.00 | 0.00 | 74 | 1015.6 |
| 20260509161319 | 59 | 206 | 0.0 | 0.0 | 0.00 | 0.00 | 0.00 | 77 | 1015.8 |
| 20260509160336 | 57 | 256 | 0.0 | 0.0 | 0.00 | 0.00 | 0.00 | 80 | 1015.8 |
| 20260509155327 | 56 | 256 | 0.0 | 0.0 | 0.00 | 0.00 | 0.00 | 82 | 1015.8 |
| 20260509154321 | 56 | 256 | 0.0 | 0.0 | 0.00 | 0.00 | 0.00 | 84 | 1016.1 |
| 20260509153335 | 55 | 256 | 0.0 | 0.0 | 0.00 | 0.00 | 0.00 | 87 | 1016.1 |
| 20260509152327 | 54 | 256 | 0.0 | 0.0 | 0.00 | 0.00 | 0.00 | 92 | 1016.1 |
| 20260509151342 | 52 | 256 | 0.0 | 0.0 | 0.00 | 0.00 | 0.00 | 97 | 1016.2 |
| 20260509150334 | 51 | 256 | 0.0 | 0.0 | 0.00 | 0.00 | 0.00 | 98 | 1016.2 |
| 20260509145326 | 50 | 256 | 0.0 | 0.0 | 0.00 | 0.00 | 0.00 | 98 | 1016.3 |
| 20260509144336 | 50 | 256 | 0.0 | 0.0 | 0.00 | 0.00 | 0.00 | 98 | 1016.3 |
| 20260509143312 | 49 | 256 | 0.0 | 0.0 | 0.00 | 0.00 | 0.00 | 99 | 1016.3 |
| 20260509142327 | 49 | 256 | 0.0 | 0.0 | 0.00 | 0.00 | 0.00 | 99 | 1016.6 |
| 20260509141327 | 48 | 256 | 0.0 | 0.0 | 0.00 | 0.00 | 0.00 | 98 | 1016.5 |
| 20260509140317 | 47 | 256 | 0.0 | 0.0 | 0.00 | 0.00 | 0.00 | 99 | 1016.5 |
| 20260509135333 | 47 | 256 | 0.0 | 0.0 | 0.00 | 0.00 | 0.00 | 99 | 1016.3 |
| 20260509134325 | 46 | 256 | 0.0 | 0.0 | 0.00 | 0.00 | 0.00 | 98 | 1016.2 |
| 20260509133322 | 46 | 256 | 0.0 | 0.0 | 0.00 | 0.00 | 0.00 | 98 | 1016.2 |
| 20260509132332 | 45 | 256 | 0.0 | 0.0 | 0.00 | 0.00 | 0.00 | 98 | 1016.5 |
| 20260509131327 | 45 | 256 | 0.0 | 0.0 | 0.00 | 0.00 | 0.00 | 97 | 1016.6 |
| 20260509130323 | 45 | 256 | 0.0 | 0.0 | 0.00 | 0.00 | 0.00 | 97 | 1016.6 |
| 20260509125319 | 45 | 256 | 0.0 | 0.0 | 0.00 | 0.00 | 0.00 | 97 | 1016.5 |
| 20260509124336 | 46 | 256 | 0.0 | 0.0 | 0.00 | 0.00 | 0.00 | 97 | 1016.6 |
| 20260509123330 | 46 | 256 | 0.0 | 0.0 | 0.00 | 0.00 | 0.00 | 97 | 1016.6 |
| 20260509122340 | 46 | 256 | 0.0 | 0.0 | 0.00 | 0.00 | 0.00 | 97 | 1016.5 |
| 20260509121329 | 46 | 256 | 0.0 | 0.0 | 0.00 | 0.00 | 0.00 | 96 | 1016.4 |
| 20260509120320 | 46 | 256 | 0.0 | 0.0 | 0.00 | 0.00 | 0.00 | 96 | 1016.4 |
| 20260509115330 | 47 | 256 | 0.0 | 0.0 | 0.00 | 0.00 | 0.00 | 96 | 1016.6 |
| 20260509114325 | 47 | 256 | 0.0 | 0.0 | 0.00 | 0.00 | 0.00 | 97 | 1016.6 |
| 20260509113334 | 47 | 256 | 0.0 | 0.0 | 0.00 | 0.00 | 0.00 | 96 | 1016.6 |
| 20260509112328 | 47 | 256 | 0.0 | 0.0 | 0.00 | 0.00 | 0.00 | 96 | 1016.7 |
| 20260509111319 | 47 | 256 | 0.0 | 0.0 | 0.00 | 0.00 | 0.00 | 96 | 1016.7 |
| 20260509110334 | 47 | 256 | 0.0 | 0.0 | 0.00 | 0.00 | 0.00 | 96 | 1016.7 |
| 20260509105325 | 47 | 256 | 0.0 | 0.0 | 0.00 | 0.00 | 0.00 | 95 | 1016.7 |
| 20260509104318 | 48 | 256 | 0.0 | 0.0 | 0.00 | 0.00 | 0.00 | 95 | 1016.8 |
| 20260509103349 | 48 | 256 | 0.0 | 0.0 | 0.00 | 0.00 | 0.00 | 95 | 1016.8 |
| 20260509102326 | 48 | 256 | 0.0 | 0.0 | 0.00 | 0.00 | 0.00 | 95 | 1016.9 |
| 20260509101324 | 48 | 256 | 0.0 | 0.0 | 0.00 | 0.00 | 0.00 | 94 | 1016.9 |
| 20260509100335 | 49 | 256 | 0.0 | 0.0 | 0.00 | 0.00 | 0.00 | 94 | 1016.9 |
| 20260509095325 | 49 | 256 | 0.0 | 0.0 | 0.00 | 0.00 | 0.00 | 94 | 1017.0 |
| 20260509094319 | 49 | 256 | 0.0 | 0.0 | 0.00 | 0.00 | 0.00 | 93 | 1016.9 |
| 20260509093331 | 50 | 256 | 0.0 | 0.0 | 0.00 | 0.00 | 0.00 | 93 | 1016.9 |
| 20260509092348 | 50 | 256 | 0.0 | 0.0 | 0.00 | 0.00 | 0.00 | 93 | 1017.0 |
| 20260509091357 | 50 | 256 | 0.0 | 0.0 | 0.00 | 0.00 | 0.00 | 93 | 1017.1 |
| 20260509090327 | 50 | 256 | 0.0 | 0.0 | 0.00 | 0.00 | 0.00 | 93 | 1017.1 |
| 20260509085323 | 51 | 256 | 0.0 | 0.0 | 0.00 | 0.00 | 0.00 | 92 | 1017.2 |
| 20260509084333 | 51 | 256 | 0.0 | 0.0 | 0.00 | 0.00 | 0.00 | 92 | 1017.2 |
| 20260509083325 | 51 | 256 | 0.0 | 0.0 | 0.00 | 0.00 | 0.00 | 92 | 1017.2 |
| 20260509082325 | 52 | 256 | 0.0 | 0.0 | 0.00 | 0.00 | 0.00 | 91 | 1017.2 |
| 20260509081335 | 52 | 256 | 0.0 | 0.0 | 0.00 | 0.00 | 0.00 | 91 | 1017.2 |
| 20260509080347 | 53 | 256 | 0.0 | 0.0 | 0.00 | 0.00 | 0.00 | 91 | 1017.2 |
| 20260509075338 | 53 | 256 | 0.0 | 0.0 | 0.00 | 0.00 | 0.00 | 91 | 1017.3 |
| 20260509074330 | 53 | 256 | 0.0 | 0.0 | 0.00 | 0.00 | 0.00 | 90 | 1017.5 |
| 20260509073327 | 53 | 256 | 0.0 | 0.0 | 0.00 | 0.00 | 0.00 | 90 | 1017.5 |
| 20260509072322 | 54 | 256 | 0.0 | 0.0 | 0.00 | 0.00 | 0.00 | 89 | 1017.5 |
| 20260509071318 | 54 | 256 | 0.0 | 0.0 | 0.00 | 0.00 | 0.00 | 87 | 1017.6 |
| 20260509070329 | 55 | 256 | 0.0 | 0.0 | 0.00 | 0.00 | 0.00 | 87 | 1017.6 |
| 20260509065323 | 55 | 256 | 0.0 | 0.0 | 0.00 | 0.00 | 0.00 | 86 | 1017.6 |
| 20260509064313 | 56 | 256 | 0.0 | 0.0 | 0.00 | 0.00 | 0.00 | 84 | 1017.5 |
| 20260509063354 | 56 | 256 | 0.0 | 0.0 | 0.00 | 0.00 | 0.00 | 84 | 1017.5 |
| 20260509062325 | 57 | 256 | 0.0 | 0.0 | 0.00 | 0.00 | 0.00 | 82 | 1017.5 |
| 20260509061336 | 58 | 256 | 0.0 | 0.0 | 0.00 | 0.00 | 0.00 | 80 | 1017.3 |
| 20260509060328 | 58 | 256 | 0.0 | 0.0 | 0.00 | 0.00 | 0.00 | 78 | 1017.3 |
| 20260509055320 | 59 | 256 | 0.0 | 0.0 | 0.00 | 0.00 | 0.00 | 77 | 1017.4 |
| 20260509054318 | 60 | 256 | 0.0 | 3.0 | 0.00 | 0.00 | 0.00 | 73 | 1017.5 |
| 20260509053351 | 60 | 262 | 0.0 | 0.0 | 0.00 | 0.00 | 0.00 | 73 | 1017.5 |
| 20260509052321 | 60 | 261 | 0.0 | 0.0 | 0.00 | 0.00 | 0.00 | 72 | 1017.5 |
| 20260509051314 | 61 | 310 | 0.0 | 0.0 | 0.00 | 0.00 | 0.00 | 71 | 1017.5 |
| 20260509050333 | 62 | 310 | 0.0 | 0.0 | 0.00 | 0.00 | 0.00 | 70 | 1017.5 |
| 20260509045327 | 62 | 360 | 0.0 | 4.0 | 0.00 | 0.00 | 0.00 | 66 | 1017.2 |
| 20260509044320 | 62 | 332 | 0.0 | 4.0 | 0.00 | 0.00 | 0.00 | 65 | 1016.8 |
| 20260509043331 | 62 | 304 | 0.0 | 3.0 | 0.00 | 0.00 | 0.00 | 64 | 1016.8 |
| 20260509042326 | 63 | 304 | 0.0 | 4.0 | 0.00 | 0.00 | 0.00 | 65 | 1016.7 |
| 20260509041316 | 63 | 303 | 0.0 | 0.0 | 0.00 | 0.00 | 0.00 | 64 | 1016.6 |
| 20260509040351 | 64 | 303 | 0.0 | 0.0 | 0.00 | 0.00 | 0.00 | 63 | 1016.6 |
| 20260509035322 | 65 | 303 | 0.0 | 0.0 | 0.00 | 0.00 | 0.00 | 59 | 1016.5 |
| 20260509034334 | 66 | 303 | 0.0 | 1.0 | 0.00 | 0.00 | 0.00 | 57 | 1016.3 |
| 20260509033347 | 67 | 303 | 0.0 | 0.0 | 0.00 | 0.00 | 0.00 | 55 | 1016.3 |
| 20260509032320 | 68 | 303 | 0.0 | 3.0 | 0.00 | 0.00 | 0.00 | 54 | 1016.2 |
| 20260509031331 | 68 | 338 | 0.0 | 2.0 | 0.00 | 0.00 | 0.00 | 52 | 1016.2 |
| 20260509030326 | 69 | 328 | 0.0 | 2.0 | 0.00 | 0.00 | 0.00 | 52 | 1016.2 |
| 20260509025317 | 69 | 341 | 0.0 | 6.0 | 0.00 | 0.00 | 0.00 | 51 | 1016.2 |
| 20260509024330 | 70 | 333 | 2.0 | 7.0 | 0.00 | 0.00 | 0.00 | 50 | 1016.1 |
| 20260509023327 | 71 | 323 | 1.0 | 7.0 | 0.00 | 0.00 | 0.00 | 48 | 1016.1 |
| 20260509022318 | 71 | 327 | 0.0 | 7.0 | 0.00 | 0.00 | 0.00 | 49 | 1016.1 |
| 20260509021356 | 72 | 315 | 3.0 | 6.0 | 0.00 | 0.00 | 0.00 | 49 | 1016.0 |
| 20260509020326 | 73 | 323 | 1.0 | 6.0 | 0.00 | 0.00 | 0.00 | 46 | 1016.0 |
| 20260509015317 | 74 | 355 | 0.0 | 3.0 | 0.00 | 0.00 | 0.00 | 45 | 1015.7 |
| 20260509014312 | 74 | 355 | 0.0 | 7.0 | 0.00 | 0.00 | 0.00 | 42 | 1015.6 |
| 20260509013330 | 75 | 26 | 0.0 | 6.0 | 0.00 | 0.00 | 0.00 | 44 | 1015.6 |
| 20260509012327 | 75 | 344 | 1.0 | 11.0 | 0.00 | 0.00 | 0.00 | 46 | 1015.8 |
| 20260509011321 | 75 | 32 | 1.0 | 6.0 | 0.00 | 0.00 | 0.00 | 44 | 1015.9 |
| 20260509010357 | 75 | 22 | 0.0 | 6.0 | 0.00 | 0.00 | 0.00 | 44 | 1015.9 |
| 20260509005328 | 76 | 329 | 1.0 | 7.0 | 0.00 | 0.00 | 0.00 | 46 | 1016.0 |
| 20260509004319 | 76 | 27 | 3.0 | 7.0 | 0.00 | 0.00 | 0.00 | 41 | 1016.0 |
| 20260509003330 | 76 | 348 | 2.0 | 7.0 | 0.00 | 0.00 | 0.00 | 41 | 1016.0 |
| 20260509002328 | 76 | 321 | 3.0 | 7.0 | 0.00 | 0.00 | 0.00 | 42 | 1016.1 |
| 20260509001326 | 76 | 58 | 2.0 | 8.0 | 0.00 | 0.00 | 0.00 | 40 | 1016.1 |
| 20260509000318 | 76 | 335 | 1.0 | 6.0 | 0.00 | 0.00 | 0.00 | 41 | 1016.1 |
| 20260508235350 | 76 | 346 | 1.0 | 6.0 | 0.00 | 0.00 | 0.00 | 41 | 1016.1 |
| 20260508234322 | 75 | 307 | 0.0 | 5.0 | 0.00 | 0.00 | 0.00 | 42 | 1016.2 |
| 20260508233335 | 75 | 321 | 0.0 | 8.0 | 0.00 | 0.00 | 0.00 | 40 | 1016.2 |
| 20260508232326 | 75 | 329 | 1.0 | 8.0 | 0.00 | 0.00 | 0.00 | 43 | 1016.2 |
| 20260508231318 | 75 | 101 | 1.0 | 6.0 | 0.00 | 0.00 | 0.00 | 42 | 1016.3 |
| 20260508230331 | 75 | 282 | 3.0 | 8.0 | 0.00 | 0.00 | 0.00 | 42 | 1016.3 |
| 20260508225328 | 75 | 15 | 1.0 | 8.0 | 0.00 | 0.00 | 0.00 | 42 | 1016.6 |